Weather observations for the past three days for
Bradshaw Army Air Field / Hawaii
Imperial (Metric)
Date Time (hst) Wind (mph) Vis. (mi.) Weather Sky Cond. Temperature (ºF) Relative Humidity Wind Chill (°F) Heat Index (°F) Pressure Precipitation (in)
Air Dwpt 6 hour altimeter (in) sea level (mb) 1 hr 3 hr 6 hr
Max. Min.
18 09:55 W 8 10.00 Fair CLR 68.9 45.5 43% 30.38 1017.1
18 08:55 Calm 10.00 Fair CLR 64.9 41.4 42% 30.37 1017.2
18 07:55 Calm 10.00 Fair CLR 60.1 42.8 60.1 41.4 53% 30.37 1017.6
18 06:55 E 6 9.00 Fair CLR 47.5 36.3 65% 45 30.36 1018.5
18 05:55 E 6 9.00 Fair CLR 41.4 33.1 72% 38 30.34 1018.2
18 04:55 NE 3 10.00 Fair CLR 41.9 33.6 73% 30.32 1017.5
18 03:55 Calm 10.00 Fair CLR 46.4 36 67% 30.31 1016.3
18 02:55 E 8 10.00 Fair CLR 46.4 39.2 76% 43 30.32 1016.3
18 01:55 E 3 10.00 Fair CLR 46.8 38.5 58.1 46.6 73% 30.32 1015.8
18 00:55 Calm 10.00 Fair CLR 49.1 41.5 75% 30.33 1016.2
17 23:55 E 7 10.00 Fair CLR 50.2 43 76% 30.36 1016.8
17 22:55 E 6 10.00 Fair CLR 52.5 47.5 83% 30.37 1017.2
17 21:55 Calm 10.00 Fair CLR 54.3 50.5 87% 30.36 1016.8
17 20:55 SE 8 10.00 Mostly Cloudy BKN010 55.9 52.2 87% 30.37 1017.2
17 19:55 Calm 4.00 Fog/Mist OVC005 57.9 57.4 70.9 57.7 98% 30.35 1016.9
17 18:55 W 3 0.13 Fog VV004 58.6 58.1 98% 30.35 1017.7
17 17:55 W 7 5.00 Fog/Mist OVC004 60.8 57.9 90% 30.33 1017.5
17 16:55 W 7 1.38 Fog/Mist OVC003 61 58.3 91% 30.32 1017.5
17 15:55 W 13 9.00 Overcast BKN003 BKN007 OVC015 64.4 57.4 78% 30.32 1016.7
17 14:55 W 13 10.00 A Few Clouds FEW012 FEW036 68 57.4 69% 30.33 1016.6
17 13:55 W 13 G 20 10.00 Partly Cloudy SCT015 SCT280 69.8 57.6 72.1 61.3 65% 30.34 1016.5
17 12:55 W 15 10.00 Mostly Cloudy FEW150 FEW190 SCT220 SCT240 SCT270 BKN320 69.8 56.1 62% 30.35 1016.9
17 11:55 W 13 10.00 Partly Cloudy FEW300 SCT350 71.1 53.1 53% 30.36 1016.8
17 10:55 W 7 G 18 10.00 Fair CLR 69.8 49.8 49% 30.37 1017.2
17 09:55 SW 6 10.00 Fair CLR 68 44.6 43% 30.37 1017.6
17 08:55 W 5 10.00 Fair CLR 64.9 40.1 40% 30.36 1017.2
17 07:55 W 7 10.00 Fair CLR 61.7 30 63.3 43.9 30% 30.36 1017.2
17 04:55 Calm 10.00 Fair CLR 44.4 25.5 48% 30.31 1016.3
17 03:55 NE 5 10.00 Fair CLR 45.9 27.9 50% 44 30.31 1015.9
17 02:55 E 9 10.00 Fair CLR 46.8 33.3 60% 43 30.31 1015.9
17 01:55 E 8 10.00 Fair CLR 47.1 36.7 55.4 46.6 67% 44 30.32 1015.8
17 00:55 E 10 10.00 Fair CLR 49.1 43.9 82% 45 30.34 1016.1
16 23:55 E 7 10.00 Fair CLR 48.7 39.7 71% 46 30.35 1016.5
16 22:55 E 9 10.00 Fair CLR 50.2 42.3 74% 30.36 1016.8
16 21:55 E 9 10.00 Fair CLR 50.7 45.1 81% 30.36 1016.4
16 20:55 E 12 10.00 Fair CLR 53.1 45.3 75% 30.35 1016.0
16 19:55 Calm 10.00 A Few Clouds FEW011 55.2 51.1 71.1 55 86% 30.34 1016.1
16 18:55 Calm 9.00 A Few Clouds FEW008 56.7 52.9 87% 30.34 1017.4
16 17:55 W 7 10.00 Fair CLR 61.5 53.4 75% 30.32 1016.3
16 16:55 W 10 10.00 Fair CLR 64.9 53.8 67% 30.31 1015.1
16 15:55 W 12 10.00 Fair CLR 67.5 55.8 66% 30.31 1014.6
16 14:55 W 15 10.00 Fair CLR 68 55.4 64% 30.32 1015.8
16 13:55 W 15 10.00 Fair CLR 70.5 55.4 74.1 67.5 59% 30.33 1015.3
16 12:55 W 15 10.00 Partly Cloudy FEW140 FEW170 SCT230 SCT320 70.9 51.8 51% 30.34 1015.7
16 11:55 W 15 G 18 9.00 Partly Cloudy FEW300 SCT340 73 50.4 45% 30.35 1016.0
16 10:55 W 12 10.00 Fair CLR 72.9 45.7 38% 30.35 1015.6
16 09:55 W 13 9.00 Fair CLR 73.4 28.6 19% 30.36 1016.0
16 08:55 W 9 10.00 Fair CLR 71.2 22.6 16% 30.36 1016.0
16 07:55 Calm 10.00 Fair CLR 67.8 19.9 68 49.6 16% 30.37 1016.3
16 06:55 Calm 7.00 Fair CLR 54.7 21.4 27% 30.35 1016.5
16 05:55 Calm 9.00 Fair CLR 54.3 18.3 24% 30.34 1015.7
16 04:55 N 9 10.00 Fair CLR 55.4 17.2 22% 30.32 1014.6
16 03:55 N 10 10.00 Fair CLR 55.6 18.3 23% 30.31 1014.2
16 02:55 NE 3 10.00 Fair CLR 51.6 17.8 26% 30.33 1014.9
16 01:55 E 3 10.00 Fair CLR 55 19.8 64.6 52 25% 30.34 1014.8
16 00:55 N 6 10.00 Fair CLR 53.8 21.4 28% 30.36 1016.0
15 23:55 NE 3 10.00 Fair CLR 52.5 22.8 31% 30.37 1015.9
15 22:55 E 3 10.00 Fair CLR 54.3 25.2 32% 30.38 1016.2
15 21:55 N 6 10.00 Fair CLR 56.3 28.2 34% 30.39 1016.2
15 20:55 NE 5 10.00 Fair CLR 58.5 31.6 36% 30.38 1015.8
15 19:55 SE 6 10.00 Fair CLR 61.3 36.1 77.9 60.4 39% 30.37 1015.9
15 18:55 W 3 10.00 Fair CLR 66.9 47.7 50% 30.36 1016.4
15 17:55 W 10 10.00 Fair CLR 71.2 45 39% 30.35 1015.6
15 16:55 W 10 10.00 Fair CLR 73.2 44.6 36% 30.33 1014.9
15 15:55 W 14 10.00 Fair CLR 73.8 54.5 51% 30.33 1014.9
15 14:55 W 16 9.00 Fair CLR 75.9 54.9 48% 78 30.35 1015.2
15 13:55 W 13 10.00 A Few Clouds FEW340 78.1 52.5 81.7 70.2 41% 79 30.36 1014.8
15 12:55 W 14 G 18 10.00 Mostly Cloudy FEW130 FEW200 SCT250 SCT310 SCT340 BKN360 76.1 53.2 45% 78 30.37 1015.5
15 11:55 SE 21 G 26 9.00 Partly Cloudy and Breezy FEW170 FEW220 SCT320 80.1 29.8 16% 78 30.38 1015.5
15 10:55 SE 18 G 28 10.00 Fair CLR 80.1 28.2 15% 78 30.38 1015.2
Date Time (hst) Wind (mph) Vis. (mi.) Weather Sky Cond. Air Dwpt Max. Min. Relative Humidity Wind Chill (°F) Heat Index (°F) altimeter (in) sea level (mb) 1 hr 3 hr 6 hr
6 hour
Temperature (ºF) Pressure Precipitation (in)